Kiana, AK

8:00 AM AKST on February 27, 2017 (GMT -0900)
Baker Memorial

Weather History for PAIK - April, 2013

Change the Weather History Date:

Tuesday, April 9, 2013

  Actual Average (PASK) Record (PASK)
Temperature  
Mean Temperature 0 °F -  
Max Temperature 0 °F 20 °F 37 °F (2004)
Min Temperature -15 °F 6 °F -23 °F (2013)
Degree Days  
Heating Degree Days 64    
Moisture  
Dew Point -12 °F    
Average Humidity 60    
Maximum Humidity 83    
Minimum Humidity 34    
Precipitation  
Precipitation 0.00 in - - ()
Sea Level Pressure  
Sea Level Pressure 29.70 in    
Wind  
Wind Speed 3 mph (NNW)    
Max Wind Speed 16 mph    
Max Gust Speed 22 mph    
Visibility 10 miles    
Events      
Averages and records for this station are not official NWS values.
T = Trace of Precipitation, MM = Missing Value Source: NWS Daily Summary

Daily Weather History Graph

Daily Weather History Graph

Search for Another Location

Airport or City:

Trip Planner

Search our weather history database for the weather conditions in past years. The results will help you decide how hot, cold, wet, or windy it might be!

Date:

Astronomy

Apr. 09, 2013 Rise Set
Actual Time 7:18 AM AKDT 10:09 PM AKDT
Civil Twilight 6:18 AM AKDT 11:11 PM AKDT
Nautical Twilight 4:47 AM AKDT 12:45 AM AKDT
Astronomical Twilight Sun does not rise Sun does not rise
Moon 6:56 AM AKDT (4/9) 10:05 PM AKDT (4/9)
Length of Visible Light 16h 52m
Length of Day
14h 50m
Waning Crescent, 0% of the Moon is Illuminated
Apr 9
Waning Crescent
Apr 10
New
Apr 18
First Quarter
Apr 25
Full
May 2
Last Quarter

Hourly Weather History & Observations

Time (AKDT) Temp. Windchill Dew Point Humidity Pressure Visibility Wind Dir Wind Speed Gust Speed Precip Events Conditions
12:01 AM -9.0 °F - -13.0 °F 83% 29.99 in 5.0 mi Calm Calm - N/A   Clear
1:01 AM -9.9 °F - -15.0 °F 78% 29.96 in 10.0 mi Calm Calm - N/A   Clear
2:01 AM -9.9 °F - -16.1 °F 74% 29.94 in 10.0 mi Calm Calm - N/A   Clear
3:01 AM -9.9 °F -24.9 °F -16.1 °F 74% 29.90 in 10.0 mi NW 6.9 mph - N/A   Clear
4:01 AM -13.0 °F - -20.0 °F 71% 29.88 in 10.0 mi Calm Calm - N/A   Clear
5:01 AM -15.0 °F - -20.9 °F 75% 29.84 in 10.0 mi Calm Calm - N/A   Clear
6:01 AM -15.0 °F -33.7 °F -20.0 °F 78% 29.80 in 10.0 mi WNW 9.2 mph - N/A   Clear
7:01 AM -14.1 °F - -20.0 °F 75% 29.78 in 10.0 mi Calm Calm - N/A   Clear
8:01 AM -13.0 °F - -18.9 °F 75% 29.75 in 10.0 mi Calm Calm - N/A   Clear
9:01 AM -6.0 °F - -15.0 °F 65% 29.72 in 10.0 mi Calm Calm - N/A   Clear
10:01 AM -0.9 °F - -15.0 °F 52% 29.69 in 10.0 mi Calm Calm - N/A   Clear
11:01 AM 1.0 °F -8.7 °F -14.1 °F 49% 29.65 in 10.0 mi South 4.6 mph - N/A   Clear
12:01 PM 5.0 °F -4.1 °F -13.0 °F 43% 29.63 in 10.0 mi SSW 4.6 mph - N/A   Clear
1:01 PM 7.0 °F 0.1 °F -11.0 °F 44% 29.62 in 10.0 mi South 3.5 mph - N/A   Clear
2:01 PM 15.1 °F 9.4 °F -9.0 °F 34% 29.59 in 10.0 mi Variable 3.5 mph - N/A   Clear
3:01 PM 14.0 °F 8.2 °F -9.9 °F 34% 29.57 in 10.0 mi Variable 3.5 mph - N/A   Scattered Clouds
4:01 PM 16.0 °F 8.8 °F -8.0 °F 34% 29.54 in 10.0 mi NW 4.6 mph - N/A   Mostly Cloudy
5:01 PM 10.0 °F -7.1 °F -6.0 °F 48% 29.54 in 10.0 mi ENE 16.1 mph 20.7 mph N/A   Mostly Cloudy
6:01 PM 8.1 °F -9.0 °F -7.1 °F 50% 29.54 in 10.0 mi ENE 15.0 mph 21.9 mph N/A   Mostly Cloudy
7:01 PM 8.1 °F -2.0 °F -5.1 °F 55% 29.55 in 10.0 mi NE 5.8 mph - N/A   Overcast
8:01 PM 8.1 °F -0.5 °F -4.0 °F 58% 29.56 in 10.0 mi North 4.6 mph - N/A   Overcast
10:01 PM 3.9 °F - -4.0 °F 70% 29.57 in 9.0 mi Calm Calm - 0.00 in   Mostly Cloudy
11:01 PM 1.9 °F -7.6 °F -6.0 °F 69% 29.60 in 10.0 mi WNW 4.6 mph - N/A   Clear